Погода в Бахтемире

Россия / Астраханская область     46°09′49″N   47°48′47″E
темп.,
°C
ветер,
м/с
пор.,
м/с
влажн.,
%
обл.,
%
осадки,
мм/ч
давл.,
гПа
погр.,
м
22 апреля, чт
чт2201:00+13сз6107665 0.0 1019292
04:00+13ссз51076100 0.3 1020332
07:00+13с5974100 0.4 1021354
10:00+13ссз71171100 0.4 1022443
13:00+13с6972100 0.0 1023488
16:00+14св5765100 0.0 1022450
19:00+13ссв577148 0.0 1022355
22:00+11с48825 0.0 1022183
23 апреля, пт
пт2301:00+11ссв4983100 0.0 1020278
04:00+11ссв5987100 0.4 1019361
07:00+10ссз5783100 1.2 1020451
10:00+10ссз5882100 1.9 1020493
13:00+13ссз71069100 0.8 1020725
16:00+17ссз6851100 0.8 10191347
19:00+15ссз475946 0.0 1019497
22:00+14зсз510651 0.1 1019275
24 апреля, сб
сб2401:00+12зсз46680 0.0 1018114
04:00+11з4673100 0.0 1018101
07:00+12з3669100 0.0 1019163
10:00+15зюз4554100 0.0 1020504
13:00+19юз453958 0.0 10191362
16:00+20юз483470 0.0 10182059
19:00+17ю81048100 0.0 1018514
22:00+16ююз7125583 0.0 1020425
25 апреля, вс
вс2501:00+15юз6956100 0.0 1020301
04:00+15юз365997 0.0 1020177
07:00+15зсз2466100 0.0 1021325
10:00+15ссз5570100 0.1 1021567
13:00+17с325567 0.0 10211155
16:00+19ссв5548100 0.0 10191275
19:00+17ссв785396 0.0 1017735
22:00+14ссв81255100 0.0 1018500
26 апреля, пн
пн2601:00+13ссв7126156 0.0 1017515
04:00+12св81375100 0.0 1015456
07:00+12ссв81370100 0.0 1015549
10:00+15св81061100 0.0 1014861
13:00+16ссв6754100 0.0 1014898
16:00+18с6648100 0.0 10141067
19:00+16с775847 0.0 1013830
22:00+12ссз6876100 0.0 1015339